This demonstration page uses our WeatherBlox Daily Observations layout. Learn more.

Hourly Observations for June 30, 2020

Temp ( °F °C ) Dew Point ( °F °C ) Humidity (%) Winds ( mph kmh ) Pressure ( in mb ) Visibility ( mi km ) Precip ( " mm )
12:15 am 00:15 Clear 80 26.6 72 22 76 76 SSE 15 24 29.49 998 10 16.0934 0 0
12:35 am 00:35 Clear 79 26.2 72 22 78 78 SSE 13 20 29.49 999 10 16.0934 0 0
12:55 am 00:55 Clear 79 26 72 22 79 79 SSE 14 22 29.49 999 10 16.0934 0 0
1:15 am 01:15 Clear 79 25.9 71 21.9 79 79 SSE 12 19 29.49 999 10 16.0934 0 0
1:35 am 01:35 Clear 78 25.5 72 22 81 81 SSE 10 17 29.49 999 10 16.0934 0 0
1:55 am 01:55 Clear 78 25.3 72 22 82 82 SSE 13 20 29.5 999 10 16.0934 0 0
2:15 am 02:15 Clear 77 25 72 22.1 84 84 SSE 13 20 29.5 999 10 16.0934 0 0
2:35 am 02:35 Clear 77 24.8 72 22.1 85 85 SSE 12 19 29.5 999 10 16.0934 0 0
2:55 am 02:55 Clear 76 24.7 72 22.2 86 86 SSE 12 19 29.5 999 10 16.0934 0 0
3:15 am 03:15 Clear 77 24.8 72 22.2 86 86 SSE 15 24 29.5 999 10 16.0934 0 0
3:35 am 03:35 Clear 76 24.7 72 22.2 86 86 SSE 14 22 29.49 999 10 16.0934 0 0
3:55 am 03:55 Clear 76 24.5 72 22.2 87 87 SSE 15 24 29.49 999 10 16.0934 0 0
4:15 am 04:15 Clear 76 24.3 72 22.3 89 89 SSE 14 22 29.49 999 10 16.0934 0 0
4:35 am 04:35 Clear 75 24 72 22.2 90 90 SSE 10 17 29.49 999 10 16.0934 0 0
4:55 am 04:55 Clear 75 23.7 72 22.1 91 91 SSE 9 15 29.5 999 10 16.0934 0 0
5:15 am 05:15 Clear 74 23.5 72 22.1 92 92 SSE 10 17 29.5 999 10 16.0934 0 0
5:35 am 05:35 Clear 74 23.2 72 22 93 93 SSE 12 19 29.5 999 10 16.0934 0 0
5:55 am 05:55 Clear 73 23 72 22 94 94 SSE 10 17 29.5 999 7 11.26538 0 0
6:15 am 06:15 Sunny 73 23 71 21.9 94 94 SSE 9 15 29.51 999 7 11.26538 0 0
6:35 am 06:35 Sunny 73 23 72 22 94 94 SE 10 17 29.52 1000 7 11.26538 0 0
6:55 am 06:55 Sunny with Mist and Fog 73 23 72 22 94 94 SE 13 20 29.52 1000 5 8.0467 0 0
7:15 am 07:15 Partly Cloudy 74 23.1 72 22.1 94 94 SSE 12 19 29.51 999 7 11.26538 0 0
7:35 am 07:35 Partly Cloudy 74 23.5 72 22.2 92 92 SSE 14 22 29.51 999 7 11.26538 0 0
7:55 am 07:55 Mostly Cloudy 75 23.9 72 22.2 90 90 SSE 15 24 29.51 999 7 11.26538 0 0
8:15 am 08:15 Mostly Cloudy 76 24.4 72 22.2 88 88 SSE 15 24 29.51 999 10 16.0934 0 0
8:35 am 08:35 Cloudy 77 24.8 72 22.1 85 85 SSE 16 26 29.51 999 10 16.0934 0 0
8:55 am 08:55 Cloudy 77 25.2 72 22 82 82 SSE 15 24 29.52 1000 10 16.0934 0 0
9:15 am 09:15 Mostly Cloudy 79 25.9 71 21.9 79 79 SSE 17 28 29.5 999 10 16.0934 0 0
9:35 am 09:35 Mostly Cloudy 80 26.5 71 21.8 75 75 SSE 13 20 29.51 999 10 16.0934 0 0
9:55 am 09:55 Partly Cloudy 80 26.6 71 21.4 73 73 S 16 26 29.51 999 10 16.0934 0 0
10:15 am 10:15 Sunny 81 27.2 70 21.3 70 70 S 16 26 29.5 999 10 16.0934 0 0
10:35 am 10:35 Partly Cloudy 82 27.5 71 21.4 69 69 S 10 17 29.51 999 10 16.0934 0 0
10:55 am 10:55 Partly Cloudy 82 28 70 21.1 66 66 S 10 17 29.5 999 10 16.0934 0 0
11:15 am 11:15 Sunny 83 28.4 70 20.9 64 64 SSE 10 17 29.5 999 10 16.0934 0 0
11:35 am 11:35 Partly Cloudy 84 28.7 70 20.9 63 63 SSE 10 17 29.51 999 10 16.0934 0 0
11:55 am 11:55 Partly Cloudy 84 29 69 20.3 59 59 SSE 9 15 29.51 999 10 16.0934 0 0
12:15 pm 12:15 Sunny 85 29.5 68 20.1 57 57 SSE 9 15 29.5 999 10 16.0934 0 0
12:35 pm 12:35 Sunny 86 30 69 20.7 57 57 SSE 9 15 29.51 999 10 16.0934 0 0
12:55 pm 12:55 Sunny 87 30.6 69 20.6 55 55 S 9 15 29.49 999 10 16.0934 0 0
1:15 pm 13:15 Sunny 88 31 68 20.1 52 52 SE 6 9 29.5 999 10 16.0934 0 0
1:35 pm 13:35 Partly Cloudy 88 31.2 69 20.3 52 52 S 12 19 29.5 999 10 16.0934 0 0
1:55 pm 13:55 Mostly Cloudy 89 31.6 69 20.5 52 52 SE 12 19 29.49 999 10 16.0934 0 0
2:15 pm 14:15 Partly Cloudy 89 31.6 69 20.3 51 51 SE 13 20 29.5 999 10 16.0934 0 0
2:35 pm 14:35 Partly Cloudy 90 32 67 19.6 48 48 SE 10 17 29.48 998 10 16.0934 0 0
2:55 pm 14:55 Sunny 90 32.4 68 19.8 47 47 SSE 12 19 29.49 999 10 16.0934 0 0
3:15 pm 15:15 Sunny 91 32.6 68 20.2 48 48 SSE 13 20 29.49 999 10 16.0934 0 0
3:35 pm 15:35 Sunny 91 32.9 68 20.2 47 47 SSE 13 20 29.49 999 10 16.0934 0 0
3:55 pm 15:55 Partly Cloudy 91 33 67 19.4 45 45 SE 15 24 29.49 999 10 16.0934 0 0
4:15 pm 16:15 Partly Cloudy 92 33.3 66 19.1 43 43 S 12 19 29.48 998 10 16.0934 0 0
4:35 pm 16:35 Sunny 92 33.6 67 19.3 43 43 SSE 8 13 29.49 999 10 16.0934 0 0
4:55 pm 16:55 Partly Cloudy 92 33.4 65 18.4 41 41 SSE 9 15 29.49 999 10 16.0934 0 0
5:15 pm 17:15 Partly Cloudy 92 33.4 65 18.3 41 41 S 7 11 29.49 999 10 16.0934 0 0
5:35 pm 17:35 Partly Cloudy 92 33.2 65 18.2 41 41 SSE 3 6 29.5 999 10 16.0934 0 0
5:55 pm 17:55 Sunny 92 33.2 65 18.4 41 41 SSW 6 9 29.5 999 10 16.0934 0 0
6:15 pm 18:15 Sunny 91 32.9 65 18.2 42 42 Calm 29.5 999 10 16.0934 0 0
6:35 pm 18:35 Partly Cloudy 91 32.6 66 19 45 45 Calm 29.5 999 10 16.0934 0 0
6:55 pm 18:55 Mostly Cloudy 91 33 65 18.5 42 42 Calm 29.5 999 10 16.0934 0 0
7:15 pm 19:15 Mostly Cloudy 91 32.6 65 18.3 43 43 Calm 29.51 999 10 16.0934 0 0
7:35 pm 19:35 Mostly Cloudy 84 28.8 67 19.4 57 57 NNW 21 33 29.56 1001 10 16.0934 0 0
7:55 pm 19:55 Partly Cloudy 82 27.5 65 18.1 57 57 NNW 18 30 29.59 1002 10 16.0934 0 0
8:15 pm 20:15 Sunny 80 26.7 63 17.4 57 57 NNW 21 33 29.6 1003 10 16.0934 0 0
8:35 pm 20:35 Sunny with Nearby Thunderstorms 79 26 62 16.5 56 56 NNW 17 28 29.63 1003 10 16.0934 0 0
8:55 pm 20:55 Sunny 77 25 62 16.5 59 59 N 13 20 29.64 1004 10 16.0934 0 0
9:15 pm 21:15 Clear 76 24.3 62 16.7 63 63 N 13 20 29.64 1004 10 16.0934 0 0
9:35 pm 21:35 Clear 75 23.7 62 16.5 64 64 N 10 17 29.65 1004 10 16.0934 0 0
9:55 pm 21:55 Clear 73 23 62 16.5 67 67 N 13 20 29.66 1005 10 16.0934 0 0
10:15 pm 22:15 Clear 73 23 61 16.2 66 66 N 12 19 29.66 1005 10 16.0934 0 0
10:35 pm 22:35 Clear with Nearby Thunderstorms 73 22.5 61 16.3 68 68 N 8 13 29.69 1005 10 16.0934 0 0
10:55 pm 22:55 Clear 72 22.1 62 16.5 71 71 N 9 15 29.69 1005 10 16.0934 0 0
11:15 pm 23:15 Clear 71 21.6 62 16.6 73 73 N 7 11 29.7 1006 10 16.0934 0 0
11:35 pm 23:35 Partly Cloudy 71 21.6 62 16.5 73 73 N 9 15 29.7 1006 10 16.0934 0 0
11:55 pm 23:55 Partly Cloudy 71 21.6 61 16.1 71 71 N 10 17 29.7 1006 10 16.0934 0 0

Powered by AerisWeather